[[{"header":{"parameterUnit":"m.s-1","parameterCategory":1,"la1":30.2991,"la2":30.254,"lo1":-89.0895,"lo2":-89.0444,"dy":0.0017,"dx":0.0017,"nx":28,"ny":28,"refTime":"2025-03-12T09:00:00:Z","depth":0,"parameterNumber":2,"parameterNumberName":"U-component_of_WINDS"},"data":[0,0,0,0,0,0,0,0,0,0,0,0,0,0,0,0,0,0,0,0,0,0,0,0,0,0,0,0,0,0,0,0,0,0,0,0,0,0,0,0,0,0,0,0,0,0,0,0,0,0,0,0,0,0,0,0,0,0,1.5465,1.5466,0,1.5495,1.5495,1.5496,1.5462,1.546,1.5459,1.5458,1.5487,1.5489,1.5491,0,0,0,0,0,0,0,0,0,0,0,0,0,1.538,1.5381,1.5465,1.5466,1.5466,1.5495,1.5495,1.5496,1.5462,1.546,1.5459,1.5457,1.5486,1.5489,1.5491,0,0,0,0,0,0,0,0,0,0,0,0,0,1.5414,1.5382,1.5465,1.5453,1.5452,1.5495,1.5495,1.5496,1.5462,1.546,1.5458,1.5456,1.5485,1.5488,1.5491,1.5548,0,0,1.55,1.5501,0,0,0,0,0,0,0,0,1.5412,1.5417,1.5454,1.5454,1.5453,1.5473,1.5476,1.5513,1.5463,1.5458,1.5458,1.5456,1.5484,1.5487,1.5496,1.5549,1.555,1.55,1.5502,1.5503,1.5504,0,0,0,0,0,0,0,1.541,1.5415,1.5477,1.5455,1.5454,1.5446,1.5448,1.5483,1.5481,1.5458,1.5456,1.546,1.5483,1.5494,1.5497,1.5551,1.55,1.5503,1.5505,1.5506,1.5654,1.5656,0,0,0,0,0,0,1.5409,1.5414,1.5476,1.5478,1.5427,1.5449,1.5452,1.5468,1.5481,1.5481,1.5462,1.5458,1.5489,1.5493,1.5498,1.5566,1.5503,1.5506,1.5508,1.5652,1.5655,1.5657,0,0,0,0,0,0,1.5407,1.5415,1.5475,1.5445,1.5452,1.5452,1.5471,1.547,1.548,1.5483,1.5483,1.5473,1.5488,1.5493,1.5536,1.5567,1.5508,1.551,1.565,1.5653,1.5656,1.5704,0,0,0,0,0,0,1.5405,1.5414,1.5435,1.5446,1.5454,1.5513,1.5473,1.5472,1.5486,1.5482,1.5494,1.5494,1.5487,1.5532,1.5539,1.557,1.5513,1.5647,1.5651,1.5655,1.5699,1.5708,1.5716,0,0,0,0,0,1.5402,1.5447,1.5437,1.5444,1.5481,1.5515,1.5519,1.5511,1.5488,1.551,1.5512,1.5493,1.5562,1.5537,1.5544,1.5576,1.5645,1.565,1.5655,1.5696,1.5706,1.5715,0,0,0,0,0,0,1.5438,1.5448,1.5437,1.5486,1.55,1.5509,1.5536,1.5522,1.5542,1.5538,1.5526,1.5529,1.5575,1.558,1.5551,1.5633,1.56,1.5607,1.5628,1.5639,1.5647,1.5645,1.5515,0,0,0,0,0,1.5452,1.548,1.5486,1.5529,1.5537,1.5536,1.555,1.5543,1.5556,1.5562,1.5567,1.5581,1.5606,1.5622,1.5645,1.57,1.5703,1.5726,1.5734,1.5741,1.5747,1.5778,1.5789,1.5673,1.5673,1.5673,0,0,1.5481,1.549,1.5507,1.5537,1.5547,1.5576,1.554,1.5572,1.5593,1.5566,1.5608,1.5612,1.5627,1.5677,1.5699,1.5682,1.578,1.5747,1.5752,1.5755,1.5785,1.5796,1.5805,1.5676,1.5676,1.5675,0,0,1.5549,1.5558,1.5596,1.5607,1.5623,1.5622,1.5631,1.5643,1.5645,1.5687,1.5668,1.5693,1.5736,1.5748,1.576,1.5836,1.582,1.5843,1.5886,1.5917,1.5926,1.5934,1.5963,1.5973,1.5849,1.5849,1.5849,0,1.5583,1.5625,1.5617,1.5651,1.5665,1.5643,1.5682,1.5694,1.5716,1.5727,1.5708,1.5763,1.5771,1.5825,1.5843,1.5853,1.5864,1.5842,1.5926,1.5934,1.5941,1.5968,1.5979,1.5852,1.5852,1.5852,1.5851,0,1.5667,1.5697,1.5726,1.575,1.5768,1.5804,1.5801,1.582,1.5812,1.5814,1.5857,1.5867,1.5893,1.5905,1.5896,1.5958,1.5947,1.5927,1.5894,1.5955,1.5981,1.5991,1.5856,1.5855,1.5854,1.5854,0,0,1.5757,1.5778,1.5789,1.58,1.5818,1.5841,1.5877,1.5903,1.5921,1.5937,1.5968,1.6006,1.5989,1.6002,1.5995,1.6022,1.6084,1.5999,1.6,1.6016,1.6155,1.6171,1.6183,1.6074,1.6076,1.6077,1.6155,0,1.5826,1.5889,1.5884,1.5943,1.5972,1.5954,1.5985,1.6,1.6003,1.6028,1.6031,1.6059,1.6033,1.6041,1.6067,1.6071,1.6112,1.6066,1.6104,1.6105,1.6101,1.6196,1.6212,1.6284,1.6164,1.6166,1.6167,0,1.5914,1.5936,1.6,1.6015,1.6027,1.6056,1.6081,1.6105,1.6122,1.6122,1.6139,1.6128,1.6166,1.6131,1.6184,1.6152,1.6168,1.6172,1.6175,1.6179,1.614,1.6204,1.6307,1.6318,1.6182,1.6181,1.618,0,1.5976,1.6021,1.6065,1.6075,1.6094,1.6115,1.6124,1.6139,1.6156,1.6178,1.6189,1.6215,1.6229,1.625,1.6247,1.6222,1.6301,1.6266,1.6304,1.6304,1.6321,1.632,1.643,1.633,1.6329,1.6329,1.6329,0,1.6053,1.6093,1.6093,1.612,1.6165,1.6159,1.6204,1.621,1.6224,1.6253,1.6238,1.6266,1.626,1.6287,1.6285,1.633,1.6336,1.6339,1.6338,1.634,1.6341,1.6351,1.6346,1.6332,1.6331,1.6331,1.633,0,1.6129,1.613,1.6178,1.6193,1.6198,1.623,1.6243,1.627,1.6272,1.6309,1.6318,1.6322,1.6354,1.6353,1.6389,1.6388,1.6444,1.6437,1.6439,1.6438,1.6476,1.6473,1.6596,1.6613,1.6501,1.6502,1.6503,0,1.6179,1.6209,1.6229,1.6248,1.6258,1.6288,1.6307,1.6302,1.6322,1.6345,1.6369,1.6401,1.6425,1.6478,1.6484,1.6512,1.6507,1.6548,1.6511,1.6514,1.6509,1.6508,1.6512,1.6555,1.6557,1.6558,1.6558,0,1.6268,1.6268,1.6295,1.6323,1.6346,1.6367,1.6387,1.6403,1.6402,1.6425,1.6458,1.6478,1.6516,1.6548,1.6576,1.6585,1.6573,1.657,1.6581,1.6584,1.6585,1.6587,1.646,1.6568,1.6567,1.6566,1.6565,1.6565,1.6333,1.636,1.6379,1.641,1.6426,1.6445,1.6472,1.6479,1.6507,1.6539,1.6535,1.6573,1.6591,1.6628,1.664,1.667,1.6656,1.667,1.6674,1.6678,1.6683,1.658,1.6675,1.6675,1.6674,1.6674,1.6674,0,1.6422,1.6434,1.6463,1.6493,1.6518,1.6505,1.6527,1.6549,1.6583,1.6602,1.6628,1.6668,1.6699,1.6709,1.674,1.6763,1.6758,1.6771,1.677,1.6773,1.6694,1.6682,1.6775,1.6774,1.6774,1.6774,1.6774,1.6774,1.6472,1.6518,1.6521,1.6576,1.6587,1.6625,1.664,1.6659,1.6674,1.672,1.6746,1.6753,1.6769,1.6802,1.6831,1.6833,1.6845,1.6862,1.6862,1.6788,1.6778,1.6768,1.6757,1.6864,1.6864,1.6938,1.6939,1.6939]},{"header":{"parameterUnit":"m.s-1","parameterCategory":1,"la1":30.2991,"la2":30.254,"lo1":-89.0895,"lo2":-89.0444,"dy":0.0017,"dx":0.0017,"nx":28,"ny":28,"refTime":"2025-03-12T09:00:00:Z","depth":0,"parameterNumber":3,"parameterNumberName":"V-component_of_WINDS"},"data":[0,0,0,0,0,0,0,0,0,0,0,0,0,0,0,0,0,0,0,0,0,0,0,0,0,0,0,0,0,0,0,0,0,0,0,0,0,0,0,0,0,0,0,0,0,0,0,0,0,0,0,0,0,0,0,0,0,0,1.9024,1.9025,0,1.9061,1.9061,1.9062,1.9076,1.9075,1.9075,1.9075,1.911,1.9111,1.9112,0,0,0,0,0,0,0,0,0,0,0,0,0,1.8966,1.8967,1.9024,1.9025,1.9025,1.9061,1.9061,1.9062,1.9076,1.9075,1.9075,1.9075,1.911,1.9111,1.9112,0,0,0,0,0,0,0,0,0,0,0,0,0,1.8996,1.8968,1.9024,1.9037,1.9038,1.9061,1.9061,1.9062,1.9076,1.9075,1.9075,1.9075,1.911,1.9111,1.9113,1.9125,0,0,1.9117,1.9118,0,0,0,0,0,0,0,0,1.8994,1.8998,1.9034,1.9036,1.9037,1.9064,1.9054,1.9083,1.9076,1.9061,1.9075,1.9075,1.9095,1.9097,1.9105,1.9127,1.9128,1.9117,1.9118,1.9119,1.9119,0,0,0,0,0,0,0,1.8992,1.8997,1.9039,1.9035,1.9037,1.904,1.9044,1.9059,1.9078,1.9062,1.9064,1.9068,1.9095,1.9103,1.9105,1.9129,1.9117,1.9119,1.912,1.912,1.9165,1.9165,0,0,0,0,0,0,1.8988,1.8995,1.9038,1.904,1.9015,1.9041,1.9046,1.9055,1.9078,1.9082,1.9068,1.9068,1.91,1.9104,1.9107,1.9124,1.9119,1.912,1.9121,1.9164,1.9165,1.9165,0,0,0,0,0,0,1.8987,1.8992,1.9036,1.9018,1.9024,1.9042,1.9053,1.9056,1.9064,1.9082,1.9086,1.9072,1.91,1.9105,1.9121,1.9125,1.9121,1.9122,1.9164,1.9164,1.9165,1.9158,0,0,0,0,0,0,1.8985,1.8991,1.8996,1.9018,1.9024,1.905,1.9053,1.9057,1.9066,1.9067,1.9087,1.909,1.9101,1.9119,1.9122,1.9127,1.9124,1.9164,1.9164,1.9165,1.9158,1.9158,1.9158,0,0,0,0,0,1.8983,1.8992,1.8997,1.9002,1.9031,1.905,1.9054,1.9066,1.9067,1.9072,1.9084,1.909,1.9124,1.912,1.9125,1.913,1.9163,1.9164,1.9165,1.9158,1.9158,1.9158,0,0,0,0,0,0,1.8969,1.8995,1.9,1.9016,1.9031,1.9052,1.9059,1.9066,1.908,1.908,1.9094,1.9099,1.9114,1.9124,1.9119,1.9144,1.9144,1.9146,1.9137,1.9138,1.9138,1.9135,1.9125,0,0,0,0,0,1.8969,1.8982,1.9004,1.9016,1.9023,1.904,1.9049,1.9057,1.9073,1.9079,1.9092,1.9106,1.9121,1.913,1.9144,1.9159,1.9164,1.9165,1.9165,1.9165,1.9167,1.9177,1.9178,1.9167,1.9167,1.9167,0,0,1.8966,1.8982,1.8989,1.9014,1.9026,1.904,1.9045,1.9059,1.9069,1.908,1.9097,1.9108,1.9125,1.9141,1.9149,1.9149,1.9171,1.9166,1.9166,1.9167,1.9177,1.9179,1.9179,1.9167,1.9167,1.9167,0,0,1.897,1.8983,1.8995,1.9008,1.9027,1.9039,1.9042,1.9062,1.907,1.9087,1.9097,1.9109,1.9133,1.9145,1.9155,1.9165,1.9171,1.9169,1.917,1.9179,1.918,1.9181,1.9186,1.9187,1.917,1.917,1.917,0,1.8964,1.8986,1.9,1.9014,1.9025,1.9037,1.905,1.9062,1.9084,1.9091,1.9092,1.9123,1.9135,1.9156,1.9158,1.9165,1.9169,1.9166,1.9179,1.918,1.9181,1.9186,1.9187,1.917,1.917,1.917,1.917,0,1.8979,1.8994,1.9001,1.9024,1.9036,1.9049,1.9066,1.9076,1.9084,1.9095,1.9113,1.9129,1.9147,1.9152,1.9159,1.9174,1.9174,1.9176,1.9177,1.9182,1.9186,1.9188,1.9169,1.9169,1.9169,1.9169,0,0,1.8973,1.9006,1.9008,1.9019,1.9042,1.9054,1.9069,1.9087,1.9096,1.9111,1.9124,1.9145,1.9149,1.9159,1.9168,1.9177,1.9185,1.9179,1.9179,1.918,1.9203,1.9201,1.9203,1.9189,1.919,1.919,1.9202,0,1.898,1.9007,1.9021,1.9042,1.9057,1.9069,1.9082,1.9097,1.9109,1.9123,1.9135,1.915,1.9153,1.916,1.9169,1.9182,1.919,1.9181,1.9201,1.9202,1.9197,1.9205,1.9203,1.9213,1.9204,1.9204,1.9204,0,1.8991,1.9008,1.9031,1.9054,1.906,1.9072,1.9091,1.9104,1.9122,1.913,1.9143,1.9152,1.9168,1.9168,1.919,1.9184,1.9193,1.9201,1.9202,1.9204,1.9203,1.9208,1.9217,1.9218,1.9207,1.9207,1.9206,0,1.8986,1.9014,1.9032,1.9041,1.9068,1.9076,1.9087,1.9106,1.9117,1.9133,1.9141,1.9159,1.9169,1.9182,1.9196,1.9195,1.9218,1.9218,1.9225,1.9225,1.9229,1.9229,1.924,1.9234,1.9234,1.9234,1.9234,0,1.8992,1.9005,1.903,1.9041,1.9057,1.9073,1.9088,1.9101,1.9117,1.9131,1.9143,1.9155,1.9173,1.9187,1.9198,1.9216,1.922,1.9227,1.923,1.9226,1.9225,1.9232,1.9232,1.9235,1.9235,1.9234,1.9234,0,1.8988,1.9005,1.9026,1.905,1.9057,1.9068,1.9089,1.91,1.9113,1.913,1.9135,1.9155,1.9173,1.9189,1.9212,1.922,1.9238,1.9241,1.9232,1.9234,1.924,1.9239,1.9256,1.9259,1.9251,1.9251,1.9251,0,1.8991,1.9002,1.9029,1.9039,1.9051,1.9068,1.908,1.9097,1.9108,1.9131,1.914,1.9159,1.9175,1.9204,1.922,1.9239,1.9242,1.9247,1.9245,1.9242,1.9243,1.9243,1.9244,1.9247,1.9247,1.9247,1.9247,0,1.8995,1.9003,1.902,1.9041,1.9055,1.9072,1.9089,1.9096,1.9117,1.9129,1.9149,1.9162,1.9187,1.9206,1.9227,1.9238,1.9246,1.9248,1.925,1.9247,1.9242,1.9245,1.9233,1.9247,1.9247,1.9247,1.9247,1.9247,1.8995,1.9006,1.9027,1.9046,1.9061,1.9077,1.909,1.9105,1.9121,1.9144,1.9153,1.9173,1.9192,1.9221,1.9233,1.9249,1.925,1.9254,1.9255,1.9255,1.9255,1.9239,1.9253,1.9253,1.9253,1.9253,1.9253,0,1.9,1.9014,1.9032,1.9056,1.9072,1.9079,1.9099,1.9111,1.9129,1.9146,1.9163,1.9186,1.9205,1.9224,1.9244,1.9253,1.9258,1.9258,1.9258,1.9261,1.9253,1.9249,1.9255,1.9255,1.9255,1.9255,1.9255,1.9255,1.9004,1.9024,1.9035,1.9062,1.9077,1.9097,1.9108,1.9123,1.9138,1.9164,1.918,1.9193,1.9211,1.9233,1.9251,1.9256,1.9263,1.9263,1.9269,1.9261,1.9261,1.926,1.9257,1.9264,1.9264,1.9276,1.9276,1.9276]}]]